contact:dominique.lefevre@mio.osupytheas.fr, maurice.libes@osupytheas.fr, didier.mallarino@osupytheas.fr
Project:EMSO http://www.emso-fr.org/EMSO-France
Depth: 2436.0 m
Title:EMSO Ligure Ouest : Data MII capteur MICROCAT
DateTime_Computer,Latitude,Longitude,Temperature,Conductivity,Pressure,DateTime_Instrument
DateTime_Computer,Latitude,Longitude,degC,S m-1,dbar,DateTime_Instrument
2019-10-23T00:02:46Z,42.805,6.029,13.2958,4.59960,2469.937,2019-10-23T02:03:12Z
2019-10-23T00:05:49Z,42.805,6.029,13.2959,4.59958,2469.947,2019-10-23T02:06:15Z
2019-10-23T00:08:52Z,42.805,6.029,13.2956,4.59958,2469.937,2019-10-23T02:09:18Z
2019-10-23T00:11:55Z,42.805,6.029,13.2959,4.59959,2469.937,2019-10-23T02:12:21Z
2019-10-23T00:14:59Z,42.805,6.029,13.2959,4.59958,2469.937,2019-10-23T02:15:25Z
2019-10-23T00:18:02Z,42.805,6.029,13.2961,4.59959,2469.914,2019-10-23T02:18:28Z
2019-10-23T00:21:05Z,42.805,6.029,13.2957,4.59959,2469.96,2019-10-23T02:21:31Z
2019-10-23T00:24:08Z,42.805,6.029,13.2958,4.59960,2469.947,2019-10-23T02:24:34Z
2019-10-23T00:27:12Z,42.805,6.029,13.2960,4.59960,2469.96,2019-10-23T02:27:38Z
2019-10-23T00:30:15Z,42.805,6.029,13.2958,4.59959,2469.923,2019-10-23T02:30:41Z
2019-10-23T00:33:18Z,42.805,6.029,13.2957,4.59958,2469.947,2019-10-23T02:33:44Z
2019-10-23T00:36:21Z,42.805,6.029,13.2958,4.59958,2469.97,2019-10-23T02:36:47Z
2019-10-23T00:39:25Z,42.805,6.029,13.2954,4.59958,2469.984,2019-10-23T02:39:50Z
2019-10-23T00:42:28Z,42.805,6.029,13.2961,4.59958,2469.96,2019-10-23T02:42:54Z
2019-10-23T00:45:31Z,42.805,6.029,13.2963,4.59958,2469.97,2019-10-23T02:45:57Z
2019-10-23T00:48:34Z,42.805,6.029,13.2958,4.59958,2469.96,2019-10-23T02:49:00Z
2019-10-23T00:51:37Z,42.805,6.029,13.2957,4.59958,2469.984,2019-10-23T02:52:03Z
2019-10-23T00:54:41Z,42.805,6.029,13.2962,4.59961,2469.96,2019-10-23T02:55:07Z
2019-10-23T00:57:44Z,42.805,6.029,13.2959,4.59958,2469.97,2019-10-23T02:58:10Z
2019-10-23T01:00:47Z,42.805,6.029,13.2956,4.59958,2469.97,2019-10-23T03:01:13Z
2019-10-23T01:03:50Z,42.805,6.029,13.2958,4.59958,2469.96,2019-10-23T03:04:16Z
2019-10-23T01:06:53Z,42.805,6.029,13.2960,4.59958,2469.937,2019-10-23T03:07:19Z
2019-10-23T01:09:57Z,42.805,6.029,13.2957,4.59958,2469.97,2019-10-23T03:10:23Z
2019-10-23T01:13:00Z,42.805,6.029,13.2957,4.59958,2469.96,2019-10-23T03:13:26Z
2019-10-23T01:16:03Z,42.805,6.029,13.2957,4.59958,2469.923,2019-10-23T03:16:29Z
2019-10-23T01:19:06Z,42.805,6.029,13.2956,4.59961,2469.947,2019-10-23T03:19:32Z
2019-10-23T01:22:09Z,42.805,6.029,13.2961,4.59959,2469.947,2019-10-23T03:22:35Z
2019-10-23T01:25:13Z,42.805,6.029,13.2960,4.59957,2469.974,2019-10-23T03:25:39Z
2019-10-23T01:28:16Z,42.805,6.029,13.2958,4.59959,2469.96,2019-10-23T03:28:42Z
2019-10-23T01:31:19Z,42.805,6.029,13.2956,4.59958,2469.97,2019-10-23T03:31:45Z
2019-10-23T01:34:22Z,42.805,6.029,13.2958,4.59957,2469.984,2019-10-23T03:34:48Z
2019-10-23T01:37:25Z,42.805,6.029,13.2957,4.59958,2469.97,2019-10-23T03:37:51Z
2019-10-23T01:40:29Z,42.805,6.029,13.2958,4.59958,2469.993,2019-10-23T03:40:55Z
2019-10-23T01:43:32Z,42.805,6.029,13.2960,4.59960,2469.947,2019-10-23T03:43:58Z
2019-10-23T01:46:35Z,42.805,6.029,13.2961,4.59958,2469.97,2019-10-23T03:47:01Z
2019-10-23T01:49:38Z,42.805,6.029,13.2953,4.59958,2469.947,2019-10-23T03:50:04Z
2019-10-23T01:52:42Z,42.805,6.029,13.2959,4.59958,2469.984,2019-10-23T03:53:07Z
2019-10-23T01:55:45Z,42.805,6.029,13.2958,4.59959,2469.984,2019-10-23T03:56:11Z
2019-10-23T01:58:48Z,42.805,6.029,13.2960,4.59961,2469.993,2019-10-23T03:59:14Z
2019-10-23T02:01:51Z,42.805,6.029,13.2957,4.59958,2470.007,2019-10-23T04:02:17Z
2019-10-23T02:04:54Z,42.805,6.029,13.2957,4.59959,2469.96,2019-10-23T04:05:20Z
2019-10-23T02:07:58Z,42.805,6.029,13.2957,4.59958,2470.007,2019-10-23T04:08:24Z
2019-10-23T02:11:01Z,42.805,6.029,13.2958,4.59958,2469.947,2019-10-23T04:11:27Z
2019-10-23T02:14:04Z,42.805,6.029,13.2956,4.59959,2469.993,2019-10-23T04:14:30Z
2019-10-23T02:17:07Z,42.805,6.029,13.2960,4.59958,2469.984,2019-10-23T04:17:33Z
2019-10-23T02:20:10Z,42.805,6.029,13.2954,4.59958,2469.993,2019-10-23T04:20:36Z
2019-10-23T02:23:14Z,42.805,6.029,13.2956,4.59957,2469.993,2019-10-23T04:23:40Z
2019-10-23T02:26:17Z,42.805,6.029,13.2958,4.59960,2469.993,2019-10-23T04:26:43Z
2019-10-23T02:29:20Z,42.805,6.029,13.2961,4.59960,2469.947,2019-10-23T04:29:46Z
2019-10-23T02:32:23Z,42.805,6.029,13.2958,4.59959,2469.97,2019-10-23T04:32:49Z
2019-10-23T02:35:26Z,42.805,6.029,13.2958,4.59958,2469.984,2019-10-23T04:35:52Z
2019-10-23T02:38:30Z,42.805,6.029,13.2961,4.59958,2469.984,2019-10-23T04:38:56Z
2019-10-23T02:41:33Z,42.805,6.029,13.2958,4.59958,2469.993,2019-10-23T04:41:59Z
2019-10-23T02:44:36Z,42.805,6.029,13.2958,4.59958,2469.993,2019-10-23T04:45:02Z
2019-10-23T02:47:39Z,42.805,6.029,13.2957,4.59958,2469.993,2019-10-23T04:48:05Z
2019-10-23T02:50:42Z,42.805,6.029,13.2956,4.59958,2470.007,2019-10-23T04:51:08Z
2019-10-23T02:53:46Z,42.805,6.029,13.2960,4.59959,2469.947,2019-10-23T04:54:12Z
2019-10-23T02:56:49Z,42.805,6.029,13.2956,4.59958,2469.984,2019-10-23T04:57:15Z
2019-10-23T02:59:52Z,42.805,6.029,13.2958,4.59957,2469.993,2019-10-23T05:00:18Z
2019-10-23T03:02:55Z,42.805,6.029,13.2959,4.59961,2469.97,2019-10-23T05:03:21Z
2019-10-23T03:05:58Z,42.805,6.029,13.2963,4.59958,2469.97,2019-10-23T05:06:24Z
2019-10-23T03:09:02Z,42.805,6.029,13.2957,4.59958,2469.97,2019-10-23T05:09:28Z
2019-10-23T03:12:05Z,42.805,6.029,13.2957,4.59957,2469.984,2019-10-23T05:12:31Z
2019-10-23T03:15:08Z,42.805,6.029,13.2958,4.59958,2469.984,2019-10-23T05:15:34Z
2019-10-23T03:18:11Z,42.805,6.029,13.2960,4.59960,2469.993,2019-10-23T05:18:37Z
2019-10-23T03:21:14Z,42.805,6.029,13.2961,4.59958,2470.007,2019-10-23T05:21:40Z
2019-10-23T03:24:18Z,42.805,6.029,13.2954,4.59960,2469.984,2019-10-23T05:24:44Z
2019-10-23T03:27:21Z,42.805,6.029,13.2957,4.59958,2469.993,2019-10-23T05:27:47Z
2019-10-23T03:30:24Z,42.805,6.029,13.2957,4.59959,2469.993,2019-10-23T05:30:50Z
2019-10-23T03:33:27Z,42.805,6.029,13.2958,4.59958,2470.007,2019-10-23T05:33:53Z
2019-10-23T03:36:30Z,42.805,6.029,13.2958,4.59957,2470.007,2019-10-23T05:36:56Z
2019-10-23T03:39:34Z,42.805,6.029,13.2960,4.59958,2469.993,2019-10-23T05:40:00Z
2019-10-23T03:42:37Z,42.805,6.029,13.2957,4.59958,2469.97,2019-10-23T05:43:03Z
2019-10-23T03:45:40Z,42.805,6.029,13.2958,4.59958,2469.97,2019-10-23T05:46:06Z
2019-10-23T03:48:43Z,42.805,6.029,13.2960,4.59958,2470.017,2019-10-23T05:49:09Z
2019-10-23T03:51:47Z,42.805,6.029,13.2965,4.59957,2469.97,2019-10-23T05:52:12Z
2019-10-23T03:54:50Z,42.805,6.029,13.2957,4.59958,2470.007,2019-10-23T05:55:16Z
2019-10-23T03:57:53Z,42.805,6.029,13.2958,4.59961,2469.97,2019-10-23T05:58:19Z
2019-10-23T04:00:56Z,42.805,6.029,13.2962,4.59958,2469.993,2019-10-23T06:01:22Z
2019-10-23T04:03:59Z,42.805,6.029,13.2957,4.59957,2470.03,2019-10-23T06:04:25Z
2019-10-23T04:07:03Z,42.805,6.029,13.2956,4.59959,2470.03,2019-10-23T06:07:29Z
2019-10-23T04:10:06Z,42.805,6.029,13.2960,4.59958,2469.984,2019-10-23T06:10:32Z
2019-10-23T04:13:09Z,42.805,6.029,13.2960,4.59958,2470.007,2019-10-23T06:13:35Z
2019-10-23T04:16:12Z,42.805,6.029,13.2961,4.59958,2469.984,2019-10-23T06:16:38Z
2019-10-23T04:19:15Z,42.805,6.029,13.2959,4.59958,2469.97,2019-10-23T06:19:41Z
2019-10-23T04:22:19Z,42.805,6.029,13.2957,4.59960,2469.937,2019-10-23T06:22:45Z
2019-10-23T04:25:22Z,42.805,6.029,13.2959,4.59960,2469.984,2019-10-23T06:25:48Z
2019-10-23T04:28:25Z,42.805,6.029,13.2961,4.59960,2470.007,2019-10-23T06:28:51Z
2019-10-23T04:31:28Z,42.805,6.029,13.2957,4.59957,2469.97,2019-10-23T06:31:54Z
2019-10-23T04:34:31Z,42.805,6.029,13.2961,4.59959,2469.96,2019-10-23T06:34:57Z
2019-10-23T04:37:35Z,42.805,6.029,13.2961,4.59957,2469.97,2019-10-23T06:38:01Z
2019-10-23T04:40:38Z,42.805,6.029,13.2958,4.59958,2469.947,2019-10-23T06:41:04Z
2019-10-23T04:43:41Z,42.805,6.029,13.2958,4.59958,2470.007,2019-10-23T06:44:07Z
2019-10-23T04:46:44Z,42.805,6.029,13.2961,4.59957,2469.97,2019-10-23T06:47:10Z
2019-10-23T04:49:47Z,42.805,6.029,13.2955,4.59958,2469.947,2019-10-23T06:50:13Z
2019-10-23T04:52:51Z,42.805,6.029,13.2961,4.59960,2469.947,2019-10-23T06:53:17Z
2019-10-23T04:55:54Z,42.805,6.029,13.2964,4.59957,2469.97,2019-10-23T06:56:20Z
2019-10-23T04:58:57Z,42.805,6.029,13.2958,4.59959,2469.947,2019-10-23T06:59:23Z
2019-10-23T05:02:01Z,42.805,6.029,13.2959,4.59960,2469.947,2019-10-23T07:02:27Z
2019-10-23T05:05:04Z,42.805,6.029,13.2958,4.59957,2469.97,2019-10-23T07:05:30Z
2019-10-23T05:08:07Z,42.805,6.029,13.2960,4.59958,2469.97,2019-10-23T07:08:33Z
2019-10-23T05:11:10Z,42.805,6.029,13.2961,4.59958,2469.984,2019-10-23T07:11:36Z
2019-10-23T05:14:13Z,42.805,6.029,13.2959,4.59959,2469.96,2019-10-23T07:14:39Z
2019-10-23T05:17:17Z,42.805,6.029,13.2955,4.59961,2469.993,2019-10-23T07:17:43Z
2019-10-23T05:20:20Z,42.805,6.029,13.2955,4.59958,2470.007,2019-10-23T07:20:46Z
2019-10-23T05:23:23Z,42.805,6.029,13.2962,4.59958,2469.923,2019-10-23T07:23:49Z
2019-10-23T05:26:26Z,42.805,6.029,13.2958,4.59958,2469.96,2019-10-23T07:26:52Z
2019-10-23T05:29:29Z,42.805,6.029,13.2960,4.59958,2469.96,2019-10-23T07:29:55Z
2019-10-23T05:32:33Z,42.805,6.029,13.2957,4.59958,2469.947,2019-10-23T07:32:59Z
2019-10-23T05:35:36Z,42.805,6.029,13.2957,4.59958,2469.984,2019-10-23T07:36:02Z
2019-10-23T05:38:39Z,42.805,6.029,13.2956,4.59958,2469.96,2019-10-23T07:39:05Z
2019-10-23T05:41:42Z,42.805,6.029,13.2959,4.59960,2469.923,2019-10-23T07:42:08Z
2019-10-23T05:44:45Z,42.805,6.029,13.2960,4.59961,2469.947,2019-10-23T07:45:11Z
2019-10-23T05:47:49Z,42.805,6.029,13.2960,4.59958,2469.947,2019-10-23T07:48:15Z
2019-10-23T05:50:52Z,42.805,6.029,13.2958,4.59958,2469.97,2019-10-23T07:51:18Z
2019-10-23T05:53:55Z,42.805,6.029,13.2961,4.59958,2469.923,2019-10-23T07:54:21Z
2019-10-23T05:56:59Z,42.805,6.029,13.2961,4.59958,2469.937,2019-10-23T07:57:25Z
2019-10-23T06:00:02Z,42.805,6.029,13.2963,4.59958,2469.947,2019-10-23T08:00:28Z
2019-10-23T06:03:05Z,42.805,6.029,13.2958,4.59958,2469.97,2019-10-23T08:03:31Z
2019-10-23T06:06:08Z,42.805,6.029,13.2958,4.59959,2469.947,2019-10-23T08:06:34Z
2019-10-23T06:09:11Z,42.805,6.029,13.2961,4.59959,2469.937,2019-10-23T08:09:37Z
2019-10-23T06:12:15Z,42.805,6.029,13.2961,4.59958,2469.937,2019-10-23T08:12:41Z
2019-10-23T06:15:18Z,42.805,6.029,13.2960,4.59958,2469.984,2019-10-23T08:15:44Z
2019-10-23T06:18:21Z,42.805,6.029,13.2959,4.59959,2469.937,2019-10-23T08:18:47Z
2019-10-23T06:21:24Z,42.805,6.029,13.2963,4.59958,2469.96,2019-10-23T08:21:50Z
2019-10-23T06:24:28Z,42.805,6.029,13.2959,4.59958,2469.984,2019-10-23T08:24:54Z
2019-10-23T06:27:31Z,42.805,6.029,13.2962,4.59961,2469.914,2019-10-23T08:27:57Z
2019-10-23T06:30:34Z,42.805,6.029,13.2962,4.59959,2469.96,2019-10-23T08:31:00Z
2019-10-23T06:33:37Z,42.805,6.029,13.2957,4.59958,2469.947,2019-10-23T08:34:03Z
2019-10-23T06:36:40Z,42.805,6.029,13.2958,4.59958,2469.96,2019-10-23T08:37:06Z
2019-10-23T06:39:44Z,42.805,6.029,13.2959,4.59956,2469.97,2019-10-23T08:40:10Z
2019-10-23T06:42:47Z,42.805,6.029,13.2957,4.59958,2469.947,2019-10-23T08:43:13Z
2019-10-23T06:45:50Z,42.805,6.029,13.2962,4.59956,2469.937,2019-10-23T08:46:16Z
2019-10-23T06:48:53Z,42.805,6.029,13.2960,4.59958,2469.9,2019-10-23T08:49:19Z
2019-10-23T06:51:56Z,42.805,6.029,13.2956,4.59958,2469.914,2019-10-23T08:52:22Z
2019-10-23T06:55:00Z,42.805,6.029,13.2961,4.59958,2469.937,2019-10-23T08:55:26Z
2019-10-23T06:58:03Z,42.805,6.029,13.2960,4.59958,2469.923,2019-10-23T08:58:29Z
2019-10-23T07:01:06Z,42.805,6.029,13.2958,4.59958,2469.9,2019-10-23T09:01:32Z
2019-10-23T07:04:09Z,42.805,6.029,13.2958,4.59958,2469.9,2019-10-23T09:04:35Z
2019-10-23T07:07:13Z,42.805,6.029,13.2958,4.59960,2469.923,2019-10-23T09:07:39Z
2019-10-23T07:10:16Z,42.805,6.029,13.2957,4.59957,2469.937,2019-10-23T09:10:42Z
2019-10-23T07:13:19Z,42.805,6.029,13.2958,4.59957,2469.9,2019-10-23T09:13:45Z
2019-10-23T07:16:22Z,42.805,6.029,13.2957,4.59958,2469.923,2019-10-23T09:16:48Z
2019-10-23T07:19:25Z,42.805,6.029,13.2959,4.59957,2469.9,2019-10-23T09:19:51Z
2019-10-23T07:22:29Z,42.805,6.029,13.2959,4.59957,2469.89,2019-10-23T09:22:54Z
2019-10-23T07:25:32Z,42.805,6.029,13.2958,4.59958,2469.937,2019-10-23T09:25:58Z
2019-10-23T07:28:35Z,42.805,6.029,13.2958,4.59956,2469.96,2019-10-23T09:29:01Z
2019-10-23T07:31:38Z,42.805,6.029,13.2960,4.59956,2469.937,2019-10-23T09:32:04Z
2019-10-23T07:34:41Z,42.805,6.029,13.2963,4.59958,2469.923,2019-10-23T09:35:07Z
2019-10-23T07:37:45Z,42.805,6.029,13.2958,4.59958,2469.914,2019-10-23T09:38:11Z
2019-10-23T07:40:48Z,42.805,6.029,13.2961,4.59957,2469.914,2019-10-23T09:41:14Z
2019-10-23T07:43:51Z,42.805,6.029,13.2958,4.59957,2469.923,2019-10-23T09:44:17Z
2019-10-23T07:46:54Z,42.805,6.029,13.2957,4.59957,2469.937,2019-10-23T09:47:20Z
2019-10-23T07:49:58Z,42.805,6.029,13.2959,4.59956,2469.914,2019-10-23T09:50:24Z
2019-10-23T07:53:01Z,42.805,6.029,13.2959,4.59957,2469.876,2019-10-23T09:53:27Z
2019-10-23T07:56:04Z,42.805,6.029,13.2958,4.59958,2469.923,2019-10-23T09:56:30Z
2019-10-23T07:59:07Z,42.805,6.029,13.2958,4.59958,2469.876,2019-10-23T09:59:33Z
2019-10-23T08:02:10Z,42.805,6.029,13.2960,4.59956,2469.923,2019-10-23T10:02:36Z
2019-10-23T08:05:14Z,42.805,6.029,13.2955,4.59956,2469.923,2019-10-23T10:05:40Z
2019-10-23T08:08:17Z,42.805,6.029,13.2957,4.59957,2469.876,2019-10-23T10:08:43Z
2019-10-23T08:11:20Z,42.805,6.029,13.2958,4.59957,2469.923,2019-10-23T10:11:46Z
2019-10-23T08:14:23Z,42.805,6.029,13.2960,4.59957,2469.89,2019-10-23T10:14:49Z
2019-10-23T08:17:27Z,42.805,6.029,13.2956,4.59956,2469.914,2019-10-23T10:17:53Z
2019-10-23T08:20:30Z,42.805,6.029,13.2961,4.59955,2469.914,2019-10-23T10:20:56Z
2019-10-23T08:23:33Z,42.805,6.029,13.2958,4.59957,2469.923,2019-10-23T10:23:59Z
2019-10-23T08:26:36Z,42.805,6.029,13.2957,4.59956,2469.876,2019-10-23T10:27:02Z
2019-10-23T08:29:39Z,42.805,6.029,13.2958,4.59958,2469.947,2019-10-23T10:30:05Z
2019-10-23T08:32:43Z,42.805,6.029,13.2958,4.59956,2469.9,2019-10-23T10:33:09Z
2019-10-23T08:35:46Z,42.805,6.029,13.2956,4.59956,2469.923,2019-10-23T10:36:12Z
2019-10-23T08:38:49Z,42.805,6.029,13.2958,4.59955,2469.937,2019-10-23T10:39:15Z
2019-10-23T08:41:52Z,42.805,6.029,13.2958,4.59954,2469.89,2019-10-23T10:42:18Z
2019-10-23T08:44:56Z,42.805,6.029,13.2958,4.59956,2469.914,2019-10-23T10:45:22Z
2019-10-23T08:47:59Z,42.805,6.029,13.2958,4.59957,2469.937,2019-10-23T10:48:25Z
2019-10-23T08:51:02Z,42.805,6.029,13.2964,4.59955,2469.876,2019-10-23T10:51:28Z
2019-10-23T08:54:05Z,42.805,6.029,13.2956,4.59955,2469.914,2019-10-23T10:54:31Z
2019-10-23T08:57:09Z,42.805,6.029,13.2956,4.59956,2469.914,2019-10-23T10:57:35Z
2019-10-23T09:00:12Z,42.805,6.029,13.2959,4.59955,2469.9,2019-10-23T11:00:38Z
2019-10-23T09:03:15Z,42.805,6.029,13.2953,4.59955,2469.9,2019-10-23T11:03:41Z
2019-10-23T09:06:18Z,42.805,6.029,13.2957,4.59959,2469.937,2019-10-23T11:06:44Z
2019-10-23T09:09:21Z,42.805,6.029,13.2960,4.59955,2469.9,2019-10-23T11:09:47Z
2019-10-23T09:12:25Z,42.805,6.029,13.2958,4.59954,2469.947,2019-10-23T11:12:51Z
2019-10-23T09:15:28Z,42.805,6.029,13.2956,4.59955,2469.914,2019-10-23T11:15:54Z
2019-10-23T09:18:31Z,42.805,6.029,13.2958,4.59956,2469.923,2019-10-23T11:18:57Z
2019-10-23T09:21:34Z,42.805,6.029,13.2955,4.59956,2469.937,2019-10-23T11:22:00Z
2019-10-23T09:24:38Z,42.805,6.029,13.2959,4.59954,2469.937,2019-10-23T11:25:04Z
2019-10-23T09:27:41Z,42.805,6.029,13.2958,4.59956,2469.89,2019-10-23T11:28:07Z
2019-10-23T09:30:44Z,42.805,6.029,13.2957,4.59956,2469.9,2019-10-23T11:31:10Z
2019-10-23T09:33:47Z,42.805,6.029,13.2953,4.59954,2469.923,2019-10-23T11:34:13Z
2019-10-23T09:36:50Z,42.805,6.029,13.2961,4.59957,2469.923,2019-10-23T11:37:16Z
2019-10-23T09:39:54Z,42.805,6.029,13.2957,4.59955,2469.96,2019-10-23T11:40:20Z
2019-10-23T09:42:57Z,42.805,6.029,13.2965,4.59955,2469.947,2019-10-23T11:43:23Z
2019-10-23T09:46:00Z,42.805,6.029,13.2958,4.59956,2469.914,2019-10-23T11:46:26Z
2019-10-23T09:49:03Z,42.805,6.029,13.2957,4.59955,2469.947,2019-10-23T11:49:29Z
2019-10-23T09:52:06Z,42.805,6.029,13.2958,4.59958,2469.923,2019-10-23T11:52:32Z
2019-10-23T09:55:10Z,42.805,6.029,13.2957,4.59955,2469.923,2019-10-23T11:55:36Z
2019-10-23T09:58:13Z,42.805,6.029,13.2957,4.59955,2469.937,2019-10-23T11:58:39Z
2019-10-23T10:01:16Z,42.805,6.029,13.2958,4.59957,2469.937,2019-10-23T12:01:42Z
2019-10-23T10:04:19Z,42.805,6.029,13.2956,4.59955,2469.923,2019-10-23T12:04:45Z
2019-10-23T10:07:23Z,42.805,6.029,13.2958,4.59961,2469.937,2019-10-23T12:07:49Z
2019-10-23T10:10:26Z,42.805,6.029,13.2955,4.59954,2469.9,2019-10-23T12:10:52Z
2019-10-23T10:13:29Z,42.805,6.029,13.2953,4.59955,2469.937,2019-10-23T12:13:55Z
2019-10-23T10:16:32Z,42.805,6.029,13.2964,4.59956,2469.923,2019-10-23T12:16:58Z
2019-10-23T10:19:36Z,42.805,6.029,13.2957,4.59956,2469.937,2019-10-23T12:20:02Z
2019-10-23T10:22:39Z,42.805,6.029,13.2956,4.59960,2469.937,2019-10-23T12:23:05Z
2019-10-23T10:25:42Z,42.805,6.029,13.2957,4.59956,2469.9,2019-10-23T12:26:08Z
2019-10-23T10:28:45Z,42.805,6.029,13.2964,4.59956,2469.947,2019-10-23T12:29:11Z
2019-10-23T10:31:48Z,42.805,6.029,13.2958,4.59956,2469.9,2019-10-23T12:32:14Z
2019-10-23T10:34:52Z,42.805,6.029,13.2955,4.59956,2469.923,2019-10-23T12:35:18Z
2019-10-23T10:37:55Z,42.805,6.029,13.2958,4.59959,2469.923,2019-10-23T12:38:21Z
2019-10-23T10:40:58Z,42.805,6.029,13.2955,4.59956,2469.937,2019-10-23T12:41:24Z
2019-10-23T10:44:01Z,42.805,6.029,13.2961,4.59955,2469.9,2019-10-23T12:44:27Z
2019-10-23T10:47:05Z,42.805,6.029,13.2960,4.59956,2469.96,2019-10-23T12:47:31Z
2019-10-23T10:50:08Z,42.805,6.029,13.2957,4.59956,2469.984,2019-10-23T12:50:34Z
2019-10-23T10:53:11Z,42.805,6.029,13.2958,4.59956,2469.984,2019-10-23T12:53:37Z
2019-10-23T10:56:14Z,42.805,6.029,13.2961,4.59958,2469.923,2019-10-23T12:56:40Z
2019-10-23T10:59:17Z,42.805,6.029,13.2957,4.59955,2469.9,2019-10-23T12:59:43Z
2019-10-23T11:02:21Z,42.805,6.029,13.2957,4.59956,2469.937,2019-10-23T13:02:47Z
2019-10-23T11:05:24Z,42.805,6.029,13.2958,4.59963,2469.937,2019-10-23T13:05:50Z
2019-10-23T11:08:27Z,42.805,6.029,13.2958,4.59958,2469.923,2019-10-23T13:08:53Z
2019-10-23T11:11:30Z,42.805,6.029,13.2957,4.59960,2469.923,2019-10-23T13:11:56Z
2019-10-23T11:14:34Z,42.805,6.029,13.2956,4.59956,2469.96,2019-10-23T13:15:00Z
2019-10-23T11:17:37Z,42.805,6.029,13.2959,4.59956,2469.923,2019-10-23T13:18:03Z
2019-10-23T11:20:40Z,42.805,6.029,13.2955,4.59958,2469.923,2019-10-23T13:21:06Z
2019-10-23T11:23:43Z,42.805,6.029,13.2960,4.59956,2469.984,2019-10-23T13:24:09Z
2019-10-23T11:26:46Z,42.805,6.029,13.2958,4.59956,2469.937,2019-10-23T13:27:12Z
2019-10-23T11:29:50Z,42.805,6.029,13.2954,4.59956,2469.97,2019-10-23T13:30:16Z
2019-10-23T11:32:53Z,42.805,6.029,13.2957,4.59958,2469.984,2019-10-23T13:33:19Z
2019-10-23T11:35:56Z,42.805,6.029,13.2957,4.59956,2469.937,2019-10-23T13:36:22Z
2019-10-23T11:38:59Z,42.805,6.029,13.2954,4.59956,2469.97,2019-10-23T13:39:25Z
2019-10-23T11:42:02Z,42.805,6.029,13.2957,4.59956,2469.984,2019-10-23T13:42:28Z
2019-10-23T11:45:06Z,42.805,6.029,13.2958,4.59956,2470.007,2019-10-23T13:45:31Z
2019-10-23T11:48:09Z,42.805,6.029,13.2957,4.59956,2469.97,2019-10-23T13:48:35Z
2019-10-23T11:51:12Z,42.805,6.029,13.2954,4.59957,2469.947,2019-10-23T13:51:38Z
2019-10-23T11:54:15Z,42.805,6.029,13.2958,4.59959,2469.993,2019-10-23T13:54:41Z
2019-10-23T11:57:19Z,42.805,6.029,13.2959,4.59956,2469.993,2019-10-23T13:57:45Z
2019-10-23T12:00:22Z,42.805,6.029,13.2957,4.59958,2469.97,2019-10-23T14:00:48Z
2019-10-23T12:03:25Z,42.805,6.029,13.2955,4.59957,2469.993,2019-10-23T14:03:51Z
2019-10-23T12:06:28Z,42.805,6.029,13.2958,4.59956,2470.007,2019-10-23T14:06:54Z
2019-10-23T12:09:31Z,42.805,6.029,13.2957,4.59959,2469.984,2019-10-23T14:09:57Z
2019-10-23T12:12:34Z,42.805,6.029,13.2960,4.59957,2470.007,2019-10-23T14:13:00Z
2019-10-23T12:15:38Z,42.805,6.029,13.2954,4.59956,2469.96,2019-10-23T14:16:04Z
2019-10-23T12:18:41Z,42.805,6.029,13.2959,4.59956,2470.03,2019-10-23T14:19:07Z
2019-10-23T12:21:44Z,42.805,6.029,13.2958,4.59958,2469.993,2019-10-23T14:22:10Z
2019-10-23T12:24:47Z,42.805,6.029,13.2957,4.59956,2470.017,2019-10-23T14:25:13Z
2019-10-23T12:27:50Z,42.805,6.029,13.2958,4.59957,2470.03,2019-10-23T14:28:16Z
2019-10-23T12:30:54Z,42.805,6.029,13.2956,4.59958,2470.007,2019-10-23T14:31:20Z
2019-10-23T12:33:57Z,42.805,6.029,13.2956,4.59957,2470.03,2019-10-23T14:34:23Z
2019-10-23T12:37:00Z,42.805,6.029,13.2957,4.59957,2469.993,2019-10-23T14:37:26Z
2019-10-23T12:40:03Z,42.805,6.029,13.2958,4.59963,2470.007,2019-10-23T14:40:29Z
2019-10-23T12:43:06Z,42.805,6.029,13.2957,4.59958,2470.03,2019-10-23T14:43:32Z
2019-10-23T12:46:10Z,42.805,6.029,13.2958,4.59961,2470.017,2019-10-23T14:46:36Z
2019-10-23T12:49:13Z,42.805,6.029,13.2955,4.59956,2469.993,2019-10-23T14:49:39Z
2019-10-23T12:52:16Z,42.805,6.029,13.2955,4.59956,2470.007,2019-10-23T14:52:42Z
2019-10-23T12:55:19Z,42.805,6.029,13.2956,4.59956,2469.993,2019-10-23T14:55:45Z
2019-10-23T12:58:22Z,42.805,6.029,13.2957,4.59957,2469.993,2019-10-23T14:58:48Z
2019-10-23T13:01:26Z,42.805,6.029,13.2955,4.59962,2469.984,2019-10-23T15:01:52Z
2019-10-23T13:04:29Z,42.805,6.029,13.2959,4.59957,2470.017,2019-10-23T15:04:55Z
2019-10-23T13:07:32Z,42.805,6.029,13.2959,4.59961,2470.017,2019-10-23T15:07:58Z
2019-10-23T13:10:35Z,42.805,6.029,13.2957,4.59961,2470.03,2019-10-23T15:11:01Z
2019-10-23T13:13:38Z,42.805,6.029,13.2957,4.59961,2470.04,2019-10-23T15:14:04Z
2019-10-23T13:16:42Z,42.805,6.029,13.2958,4.59957,2470.017,2019-10-23T15:17:08Z
2019-10-23T13:19:45Z,42.805,6.029,13.2956,4.59957,2469.993,2019-10-23T15:20:11Z
2019-10-23T13:22:48Z,42.805,6.029,13.2956,4.59957,2470.017,2019-10-23T15:23:14Z
2019-10-23T13:25:51Z,42.805,6.029,13.2957,4.59962,2470.077,2019-10-23T15:26:17Z
2019-10-23T13:28:54Z,42.805,6.029,13.2960,4.59964,2470.04,2019-10-23T15:29:20Z
2019-10-23T13:31:58Z,42.805,6.029,13.2957,4.59962,2470.053,2019-10-23T15:32:24Z
2019-10-23T13:35:01Z,42.805,6.029,13.2957,4.59961,2470.053,2019-10-23T15:35:27Z
2019-10-23T13:38:04Z,42.805,6.029,13.2954,4.59958,2470.04,2019-10-23T15:38:30Z
2019-10-23T13:41:07Z,42.805,6.029,13.2958,4.59956,2470.03,2019-10-23T15:41:33Z
2019-10-23T13:44:10Z,42.805,6.029,13.2953,4.59961,2470.1,2019-10-23T15:44:36Z
2019-10-23T13:47:14Z,42.805,6.029,13.2953,4.59961,2470.077,2019-10-23T15:47:40Z
2019-10-23T13:50:17Z,42.805,6.029,13.2957,4.59956,2470.017,2019-10-23T15:50:43Z
2019-10-23T13:53:20Z,42.805,6.029,13.2955,4.59958,2470.053,2019-10-23T15:53:46Z
2019-10-23T13:56:24Z,42.805,6.029,13.2957,4.59963,2470.077,2019-10-23T15:56:50Z
2019-10-23T13:59:27Z,42.805,6.029,13.2958,4.59961,2470.077,2019-10-23T15:59:53Z
2019-10-23T14:02:30Z,42.805,6.029,13.2955,4.59958,2470.04,2019-10-23T16:02:56Z
2019-10-23T14:05:33Z,42.805,6.029,13.2956,4.59961,2470.04,2019-10-23T16:05:59Z
2019-10-23T14:08:36Z,42.805,6.029,13.2960,4.59961,2470.063,2019-10-23T16:09:02Z
2019-10-23T14:11:40Z,42.805,6.029,13.2953,4.59961,2470.017,2019-10-23T16:12:06Z
2019-10-23T14:14:43Z,42.805,6.029,13.2956,4.59961,2470.053,2019-10-23T16:15:09Z
2019-10-23T14:17:46Z,42.805,6.029,13.2958,4.59961,2470.017,2019-10-23T16:18:12Z
2019-10-23T14:20:49Z,42.805,6.029,13.2958,4.59958,2470.04,2019-10-23T16:21:15Z
2019-10-23T14:23:52Z,42.805,6.029,13.2957,4.59958,2470.04,2019-10-23T16:24:18Z
2019-10-23T14:26:55Z,42.805,6.029,13.2957,4.59959,2470.04,2019-10-23T16:27:21Z
2019-10-23T14:29:59Z,42.805,6.029,13.2954,4.59958,2470.053,2019-10-23T16:30:25Z
2019-10-23T14:33:02Z,42.805,6.029,13.2957,4.59958,2470.04,2019-10-23T16:33:28Z
2019-10-23T14:36:05Z,42.805,6.029,13.2957,4.59958,2470.04,2019-10-23T16:36:31Z
2019-10-23T14:39:08Z,42.805,6.029,13.2958,4.59957,2470.053,2019-10-23T16:39:34Z
2019-10-23T14:42:12Z,42.805,6.029,13.2951,4.59959,2470.053,2019-10-23T16:42:38Z
2019-10-23T14:45:15Z,42.805,6.029,13.2959,4.59960,2470.04,2019-10-23T16:45:41Z
2019-10-23T14:48:18Z,42.805,6.029,13.2958,4.59960,2470.077,2019-10-23T16:48:44Z
2019-10-23T14:51:21Z,42.805,6.029,13.2957,4.59960,2470.077,2019-10-23T16:51:47Z
2019-10-23T14:54:24Z,42.805,6.029,13.2957,4.59960,2470.063,2019-10-23T16:54:50Z
2019-10-23T14:57:27Z,42.805,6.029,13.2954,4.59957,2470.063,2019-10-23T16:57:53Z
2019-10-23T15:00:31Z,42.805,6.029,13.2953,4.59957,2470.053,2019-10-23T17:00:57Z
2019-10-23T15:03:34Z,42.805,6.029,13.2957,4.59960,2470.063,2019-10-23T17:04:00Z